TimeAST,TemperatureF,Dew PointF,Humidity,Sea Level PressureIn,VisibilityMPH,Wind Direction,Wind SpeedMPH,Gust SpeedMPH,PrecipitationIn,Events,Conditions,WindDirDegrees,DateUTC
12:55 AM,82.4,80.6,94,29.89,-9999.0,ENE,10.4,-,N/A,,Unknown,70,2013-09-20 04:55:00
1:55 AM,82.4,80.6,94,29.89,-9999.0,East,9.2,-,N/A,,Unknown,80,2013-09-20 05:55:00
2:55 AM,82.4,80.6,94,29.86,6.2,East,10.4,-,N/A,,Partly Cloudy,90,2013-09-20 06:55:00
5:00 AM,82.4,80.6,94,29.86,-9999.0,East,11.5,-,N/A,,Unknown,90,2013-09-20 09:00:00
6:00 AM,82.4,80.6,94,29.86,-9999.0,East,9.2,-,N/A,,Unknown,90,2013-09-20 10:00:00
6:55 AM,82.4,78.8,89,29.89,6.2,East,10.4,-,N/A,,Partly Cloudy,90,2013-09-20 10:55:00
8:00 AM,84.2,80.6,89,29.89,6.2,East,11.5,-,N/A,,Scattered Clouds,90,2013-09-20 12:00:00
9:00 AM,86.0,80.6,84,29.92,6.2,East,11.5,-,N/A,,Scattered Clouds,90,2013-09-20 13:00:00
10:00 AM,87.8,78.8,75,29.92,6.2,East,15.0,-,N/A,,Scattered Clouds,90,2013-09-20 14:00:00
11:00 AM,87.8,80.6,79,29.92,6.2,East,15.0,-,N/A,,Scattered Clouds,90,2013-09-20 15:00:00
12:00 PM,87.8,80.6,79,29.89,6.2,East,13.8,-,N/A,,Scattered Clouds,90,2013-09-20 16:00:00
1:00 PM,89.6,78.8,70,29.86,6.2,ESE,13.8,-,N/A,,Scattered Clouds,110,2013-09-20 17:00:00
1:55 PM,89.6,80.6,75,29.83,-9999.0,East,12.7,-,N/A,,Unknown,90,2013-09-20 17:55:00
3:00 PM,89.6,78.8,70,29.80,6.2,East,13.8,-,N/A,,Scattered Clouds,90,2013-09-20 19:00:00
4:00 PM,87.8,78.8,75,29.77,6.2,East,15.0,-,N/A,,Scattered Clouds,80,2013-09-20 20:00:00
5:00 PM,86.0,80.6,84,29.80,6.2,East,15.0,-,N/A,,Scattered Clouds,100,2013-09-20 21:00:00
6:00 PM,86.0,80.6,84,29.80,6.2,ESE,13.8,-,N/A,,Scattered Clouds,110,2013-09-20 22:00:00
6:55 PM,84.2,80.6,89,29.80,-9999.0,East,12.7,-,N/A,,Unknown,100,2013-09-20 22:55:00
7:55 PM,84.2,80.6,89,29.83,-9999.0,East,10.4,-,N/A,,Unknown,100,2013-09-20 23:55:00
8:00 PM,84.2,80.6,89,29.83,6.2,East,10.4,-,N/A,,Scattered Clouds,100,2013-09-21 00:00:00
8:55 PM,84.2,80.6,89,29.86,-9999.0,East,10.4,-,N/A,,Unknown,100,2013-09-21 00:55:00
9:55 PM,84.2,80.6,89,29.89,-9999.0,ESE,9.2,-,N/A,,Unknown,110,2013-09-21 01:55:00
11:00 PM,84.2,80.6,89,29.89,-9999.0,ESE,6.9,-,N/A,,Unknown,110,2013-09-21 03:00:00